Location: Rio Tanui
(39.9167°N, 8.5167°E)
Time: 02:08:47
(UTC+00:00)

Cosmos 2058 - Pass Details

Date: 08 February 2023
Orbit: 556 x 577 km, 82.5° (Epoch: 01 April)

Event Time Altitude Azimuth Distance (km) Brightness Sun altitude
Rises 17:59:13 0° 160° (SSE) 2,783 6.3 -13.1°
Reaches altitude 10° 18:01:37 10° 149° (SSE) 1,888 5.3 -13.6°
Maximum altitude 18:05:10 28° 90° (E) 1,110 3.8 -14.2°
Enters shadow 18:07:02 20° 49° (NE) 1,373 4.3 -14.6°
